Regional Weather Roundup
Issued by NWS

Home | Current Version | Previous Version | Graphics & Text | Print | Product List | Glossary On
Versions: 1 2 3 4 5 6 7 8 9 10 11 12 13 14 15 16 17 18 19 20 21 22 23 24 25 26 27 28 29 30 31 32 33 34 35 36 37 38 39 40 41 42 43 44 45 46 47 48 49 50
073
ASUS45 KCYS 041210
RWRWY

WYOMING REGIONAL WEATHER ROUNDUP
NATIONAL WEATHER SERVICE CHEYENNE WY
500 AM MST SUN DEC 04 2016

NOTE:  "FAIR" INDICATES FEW OR NO CLOUDS BELOW 12,000 FEET
WITH NO SIGNIFICANT WEATHER AND/OR OBSTRUCTIONS TO VISIBILITY.

WYZ001-041300-
YELLOWSTONE NATIONAL PARK

CITY           SKY/WX    TMP DP  RH WIND       PRES   REMARKS
LK YELLOWSTONE   N/A     20  17  88 VRB7      29.92F WCI  11
6HR MIN TEMP:  18; 6HR MAX TEMP:  20; 6HR PCP:  0.06;

W YELLOWSTONE  NOT AVBL

$$
WYZ002>013-054>058-071-098>099-041300-
NORTHERN WYOMING

CITY           SKY/WX    TMP DP  RH WIND       PRES   REMARKS
JACKSON        CLOUDY    27  25  93 S20G25    29.99F WCI  13
CODY           FAIR      34  19  54 SW18G28   29.87F WCI  23
GREYBULL       CLOUDY    25  17  72 E5        29.91F WCI  19
6HR MIN TEMP:  23; 6HR MAX TEMP:  27;

WORLAND        MOCLDY    22  15  75 CALM      29.91F
6HR MIN TEMP:  17; 6HR MAX TEMP:  24;

SHERIDAN       FAIR      29  15  56 W7        29.86F WCI  22
6HR MIN TEMP:  26; 6HR MAX TEMP:  37;

BUFFALO        CLOUDY    30  10  43 CALM      29.87F
6HR MIN TEMP:  24; 6HR MAX TEMP:  37;

GILLETTE       FAIR      25  14  63 SW12      29.89S WCI  14
6HR MIN TEMP:  25; 6HR MAX TEMP:  33; 6HR PCP: TRACE;

HULETT         PTSUNNY   30  21  69 SW8       29.88F WCI  23
NEWCASTLE      FAIR      19  16  86 CALM      29.93S

$$
WYZ014>020-022>026-101>103-041300-
CENTRAL WYOMING

CITY           SKY/WX    TMP DP  RH WIND       PRES   REMARKS
BIG PINEY      FAIR       8   4  83 SE6       30.03F WCI  -2
6HR MIN TEMP:   3; 6HR MAX TEMP:  11;

PINEDALE       CLOUDY    12  10  92 CALM      30.03F FOG
DUBOIS         CLOUDY    25  14  63 N22G28    29.88F WCI  10
LANDER         FAIR      16   7  67 SE6       29.92F WCI   7
6HR MIN TEMP:  15; 6HR MAX TEMP:  23;

RIVERTON       FAIR      20   9  62 W13       29.93F WCI   7
6HR MIN TEMP:  20; 6HR MAX TEMP:  28;

CASPER         FAIR      21  12  68 W13       29.95F WCI   9
6HR MIN TEMP:  21; 6HR MAX TEMP:  26;

DOUGLAS        FAIR      14   8  77 CALM      29.96S
6HR MIN TEMP:  12; 6HR MAX TEMP:  22;


$$
WYZ021-027>030-104>119-041300-
SOUTHERN WYOMING

CITY           SKY/WX    TMP DP  RH WIND       PRES   REMARKS
EVANSTON       FAIR      20  13  74 SW12      30.10F WCI   8
6HR MIN TEMP:  17; 6HR MAX TEMP:  22;

FORT BRIDGER   FAIR      22  16  78 SW12      30.11F WCI  11
ROCK SPRINGS   FAIR      23  14  68 SW18G30   30.07S WCI   9
6HR MIN TEMP:  20; 6HR MAX TEMP:  23;

DIXON          FAIR      15  10  81 N6        30.15F WCI   6
RAWLINS        CLOUDY    21  12  68 SW14G23   30.01F WCI   8
6HR MIN TEMP:  18; 6HR MAX TEMP:  22;

SARATOGA       FAIR      23  14  68 SW14G23   30.03F WCI  11
LARAMIE        FAIR      17   8  67 S12       29.95F WCI   4
6HR MIN TEMP:  12; 6HR MAX TEMP:  19;

CHEYENNE       FAIR      26   8  46 W25G32    29.95F WCI  11
6HR MIN TEMP:  21; 6HR MAX TEMP:  26;

TORRINGTON     FAIR      25  13  60 W8        29.97F WCI  16
6HR MIN TEMP:  24; 6HR MAX TEMP:  31;

PINE BLUFFS    FAIR      19  10  68 W9        29.99F WCI   9

$$




USA.gov is the U.S. government's official web portal to all federal, state and local government web resources and services.